RADFXSAT-2 (AO-109) (47311 NORAD) Tracking and Keplerian Element Data

This shows tracking and keplerian element data for the satellite.

Feedback or suggestion? Click here.




ElementValue
Catalog47311
NameRADFXSAT-2 (AO-109)
Epoch Orbit10233
Epoch Day324.8133935
Epoch Year2022
RAAN132.5009
Inclination60.6823
Eccentricity0.0037965
Argument of Perigee72.3967
Mean Anonmoly288.1264
Mean Motion15.28405677
Decay Rate0.00010118
L11 47311U 21002C 22324.81339350 .00010118 00000+0 36538-3 0 9994
L22 47311 60.6823 132.5009 0037965 72.3967 288.1264 15.28405677102332



Live tracking and technical data element details for RADFXSAT-2 (AO-109) (NORAD 47311). RADFXSAT-2 (AO-109) can be tracked NOW for your location showing map with azimuth and elevation plus other details from your city location.







IsCatalogInMostPopularTable: catalog: 47311, numindb: 144
Update: records affected: 1



GetName: 47311 RADFXSAT-2 (AO-109)

Hit Count: updated at: Mon, 28 Nov 2022 04:55:21 GMT